When you browse on this site, cookies collect data to enhance your experience and personalize the content and advertising you see.
Visit our Privacy Policy to learn more. By continuing to use the site, you agree to this use of cookies and data.
  • In Hungary
  • List of Countries
  • For 7 days
  • Water Temperature
  • Weather Map
  • News
  • Weather Widgets
  • user-avatar
    Login

    Hourly Weather Mokhotlong

    Today, 10 December, Tuesday

    Time Temperature Precipitation Wind Pressure Humidity
    00:00 +12°C° 0 mm 1 mps 584 mmHg 89%
    01:00 +12°C° 0 mm 1 mps 584 mmHg 90%
    02:00 +12°C° 0 mm 1 mps 584 mmHg 90%
    03:00 +12°C° 0 mm 1 mps 583 mmHg 90%
    04:00 +11°C° 0 mm 1 mps 583 mmHg 89%
    05:00 +10°C° 0 mm 2 mps 583 mmHg 89%
    06:00 +12°C° 0.2 mm 2 mps 583 mmHg 88%
    07:00 +12°C° 0.2 mm 2 mps 584 mmHg 87%
    08:00 +13°C° 0.2 mm 2 mps 584 mmHg 87%
    09:00 +12°C° 1.6 mm 2 mps 584 mmHg 88%
    10:00 +12°C° 1.6 mm 2 mps 584 mmHg 89%
    11:00 +12°C° 1.6 mm 1 mps 584 mmHg 90%
    12:00 +12°C° 1.5 mm 1 mps 584 mmHg 90%
    13:00 +12°C° 1.5 mm 1 mps 583 mmHg 90%
    14:00 +12°C° 1.5 mm 1 mps 583 mmHg 91%
    15:00 +12°C° 1.5 mm 1 mps 583 mmHg 90%
    16:00 +12°C° 1.5 mm 1 mps 583 mmHg 90%
    17:00 +12°C° 1.5 mm 1 mps 583 mmHg 90%
    18:00 +12°C° 0.5 mm 1 mps 583 mmHg 90%
    19:00 +12°C° 0.5 mm 1 mps 583 mmHg 91%
    20:00 +12°C° 0.5 mm 1 mps 583 mmHg 91%
    21:00 +11°C° 0 mm 1 mps 583 mmHg 91%
    22:00 +11°C° 0 mm 1 mps 582 mmHg 91%
    23:00 +11°C° 0 mm 1 mps 582 mmHg 92%

    Tomorrow, 11 December, Wednesday

    Time Temperature Precipitation Wind Pressure Humidity
    00:00 +10°C° 0 mm 1 mps 582 mmHg 92%
    01:00 +9°C° 0 mm 1 mps 581 mmHg 92%
    02:00 +9°C° 0 mm 1 mps 580 mmHg 92%
    03:00 +8°C° 0 mm 1 mps 580 mmHg 92%
    04:00 +8°C° 0 mm 1 mps 580 mmHg 91%
    05:00 +8°C° 0 mm 1 mps 580 mmHg 91%
    06:00 +10°C° 0 mm 1 mps 581 mmHg 84%
    07:00 +12°C° 0 mm 1 mps 582 mmHg 77%
    08:00 +14°C° 0 mm 1 mps 583 mmHg 70%
    09:00 +15°C° 0.2 mm 1 mps 584 mmHg 66%
    10:00 +16°C° 0.2 mm 2 mps 584 mmHg 63%
    11:00 +17°C° 0.2 mm 2 mps 584 mmHg 59%
    12:00 +18°C° 0.4 mm 2 mps 584 mmHg 60%
    13:00 +18°C° 0.4 mm 3 mps 583 mmHg 61%
    14:00 +18°C° 0.4 mm 3 mps 583 mmHg 62%
    15:00 +18°C° 1.1 mm 3 mps 583 mmHg 66%
    16:00 +17°C° 1.1 mm 2 mps 583 mmHg 69%
    17:00 +16°C° 1.1 mm 2 mps 583 mmHg 73%
    18:00 +15°C° 0.8 mm 2 mps 583 mmHg 78%
    19:00 +14°C° 0.8 mm 1 mps 583 mmHg 83%
    20:00 +13°C° 0.8 mm 1 mps 583 mmHg 88%
    21:00 +12°C° 0.2 mm 1 mps 583 mmHg 90%
    22:00 +12°C° 0.2 mm 1 mps 583 mmHg 91%
    23:00 +12°C° 0.2 mm 1 mps 584 mmHg 93%

    Day after tomorrow, 12 December, Thursday

    Time Temperature Precipitation Wind Pressure Humidity
    00:00 +11°C° 0.1 mm 1 mps 583 mmHg 93%
    01:00 +11°C° 0.1 mm 1 mps 583 mmHg 93%
    02:00 +10°C° 0.1 mm 1 mps 582 mmHg 94%
    03:00 +10°C° 0 mm 1 mps 582 mmHg 93%
    04:00 +10°C° 0 mm 1 mps 582 mmHg 92%
    05:00 +10°C° 0 mm 1 mps 582 mmHg 91%
    06:00 +12°C° 0 mm 1 mps 583 mmHg 80%
    07:00 +14°C° 0 mm 1 mps 585 mmHg 70%
    08:00 +16°C° 0 mm 1 mps 586 mmHg 60%
    09:00 +18°C° 0.3 mm 1 mps 586 mmHg 56%
    10:00 +18°C° 0.3 mm 2 mps 586 mmHg 53%
    11:00 +19°C° 0.3 mm 3 mps 586 mmHg 50%
    12:00 +19°C° 0.9 mm 3 mps 586 mmHg 54%
    13:00 +18°C° 0.9 mm 2 mps 585 mmHg 58%
    14:00 +17°C° 0.9 mm 2 mps 584 mmHg 62%
    15:00 +17°C° 0.8 mm 2 mps 584 mmHg 65%
    16:00 +16°C° 0.8 mm 1 mps 584 mmHg 68%
    17:00 +16°C° 0.8 mm 1 mps 584 mmHg 71%
    18:00 +15°C° 0.7 mm 1 mps 584 mmHg 77%
    19:00 +14°C° 0.7 mm 2 mps 584 mmHg 84%
    20:00 +12°C° 0.7 mm 2 mps 584 mmHg 90%
    21:00 +12°C° 1 mm 2 mps 584 mmHg 90%
    22:00 +12°C° 1 mm 2 mps 584 mmHg 91%
    23:00 +12°C° 1 mm 2 mps 585 mmHg 92%

    13 December, Friday

    Time Temperature Precipitation Wind Pressure Humidity
    00:00 +12°C° 0.1 mm 2 mps 584 mmHg 92%
    01:00 +12°C° 0.1 mm 2 mps 584 mmHg 92%
    02:00 +10°C° 0.1 mm 2 mps 583 mmHg 92%
    03:00 +10°C° 0.1 mm 2 mps 583 mmHg 90%
    04:00 +10°C° 0.1 mm 2 mps 583 mmHg 88%
    05:00 +10°C° 0.1 mm 2 mps 583 mmHg 85%
    06:00 +13°C° 0 mm 2 mps 584 mmHg 77%
    07:00 +14°C° 0 mm 3 mps 585 mmHg 69%
    08:00 +17°C° 0 mm 3 mps 586 mmHg 61%
    09:00 +19°C° 0.3 mm 4 mps 586 mmHg 56%
    10:00 +20°C° 0.3 mm 6 mps 587 mmHg 50%
    11:00 +21°C° 0.3 mm 7 mps 587 mmHg 45%
    12:00 +21°C° 0.2 mm 8 mps 586 mmHg 44%
    13:00 +22°C° 0.2 mm 8 mps 586 mmHg 44%
    14:00 +22°C° 0.2 mm 8 mps 586 mmHg 43%
    15:00 +21°C° 0.4 mm 8 mps 585 mmHg 48%
    16:00 +19°C° 0.4 mm 9 mps 585 mmHg 53%
    17:00 +18°C° 0.4 mm 9 mps 584 mmHg 58%
    18:00 +17°C° 0.1 mm 7 mps 584 mmHg 61%
    19:00 +16°C° 0.1 mm 5 mps 584 mmHg 65%
    20:00 +14°C° 0.1 mm 3 mps 583 mmHg 68%
    21:00 +14°C° 0.1 mm 3 mps 583 mmHg 71%
    22:00 +14°C° 0.1 mm 3 mps 584 mmHg 74%
    23:00 +15°C° 0.1 mm 2 mps 584 mmHg 77%

    14 December, Saturday

    Time Temperature Precipitation Wind Pressure Humidity
    00:00 +14°C° 0.2 mm 2 mps 583 mmHg 80%
    01:00 +14°C° 0.2 mm 2 mps 583 mmHg 82%
    02:00 +14°C° 0.2 mm 2 mps 583 mmHg 85%
    03:00 +13°C° 0 mm 2 mps 582 mmHg 85%
    04:00 +13°C° 0 mm 2 mps 582 mmHg 85%
    05:00 +12°C° 0 mm 2 mps 582 mmHg 85%
    06:00 +14°C° 0 mm 3 mps 583 mmHg 75%
    07:00 +17°C° 0 mm 3 mps 584 mmHg 64%
    08:00 +19°C° 0 mm 4 mps 585 mmHg 54%
    09:00 +20°C° 0 mm 5 mps 585 mmHg 50%
    10:00 +21°C° 0 mm 6 mps 585 mmHg 46%
    11:00 +22°C° 0 mm 8 mps 585 mmHg 41%
    12:00 +22°C° 0 mm 8 mps 585 mmHg 41%
    13:00 +22°C° 0 mm 8 mps 584 mmHg 42%
    14:00 +22°C° 0 mm 8 mps 584 mmHg 42%
    15:00 +22°C° 0 mm 8 mps 584 mmHg 41%
    16:00 +22°C° 0 mm 8 mps 584 mmHg 40%
    17:00 +23°C° 0 mm 8 mps 583 mmHg 38%
    18:00 +21°C° 0 mm 7 mps 583 mmHg 39%
    19:00 +19°C° 0 mm 6 mps 582 mmHg 40%
    20:00 +17°C° 0 mm 4 mps 582 mmHg 41%
    21:00 +17°C° 0 mm 4 mps 582 mmHg 47%
    22:00 +15°C° 0 mm 4 mps 582 mmHg 52%
    23:00 +15°C° 0 mm 4 mps 581 mmHg 58%

    15 December, Sunday

    Time Temperature Precipitation Wind Pressure Humidity
    00:00 +14°C° 0 mm 4 mps 581 mmHg 59%
    01:00 +14°C° 0 mm 4 mps 581 mmHg 60%
    02:00 +13°C° 0 mm 4 mps 580 mmHg 61%
    03:00 +12°C° 0 mm 4 mps 580 mmHg 59%
    04:00 +12°C° 0 mm 3 mps 580 mmHg 57%
    05:00 +11°C° 0 mm 3 mps 580 mmHg 56%
    06:00 +13°C° 0 mm 6 mps 581 mmHg 50%
    07:00 +14°C° 0 mm 10 mps 582 mmHg 44%
    08:00 +17°C° 0 mm 13 mps 583 mmHg 38%
    09:00 +18°C° 0 mm 13 mps 584 mmHg 35%
    10:00 +19°C° 0 mm 13 mps 584 mmHg 32%
    11:00 +20°C° 0 mm 14 mps 584 mmHg 29%
    12:00 +20°C° 0 mm 14 mps 584 mmHg 27%
    13:00 +22°C° 0 mm 15 mps 584 mmHg 24%
    14:00 +22°C° 0 mm 15 mps 585 mmHg 22%
    15:00 +20°C° 0 mm 14 mps 584 mmHg 22%
    16:00 +20°C° 0 mm 13 mps 584 mmHg 22%
    17:00 +19°C° 0 mm 11 mps 584 mmHg 23%
    18:00 +17°C° 0 mm 9 mps 583 mmHg 27%
    19:00 +14°C° 0 mm 7 mps 583 mmHg 31%
    20:00 +12°C° 0 mm 5 mps 582 mmHg 36%
    21:00 +11°C° 0 mm 4 mps 582 mmHg 38%
    22:00 +10°C° 0 mm 4 mps 582 mmHg 39%
    23:00 +10°C° 0 mm 3 mps 583 mmHg 41%
    Show more